Regional Weather Roundup
Issued by NWS Green Bay, WI

Home | Current Version | Previous Version | Graphics & Text | Print | Product List | Glossary Off
Versions: 1 2 3 4 5 6 7 8 9 10 11 12 13 14 15 16 17 18 19 20 21 22 23 24 25 26 27 28 29 30 31 32 33 34 35 36 37 38 39 40 41 42 43 44 45 46 47 48 49 50

000
ASUS43 KGRB 310159
RWRGRB

NORTH-CENTRAL AND NORTHEAST WISCONSIN REGIONAL WEATHER ROUNDUP
NATIONAL WEATHER SERVICE GREEN BAY WI
900 PM CDT SAT AUG 30 2014

WIZ005-009-010>012-018-019-310300-
NORTH CENTRAL WISCONSIN

CITY           SKY/WX    TMP DP  RH WIND       PRES   REMARKS
IRONWOOD       NOT AVBL
MANITOWISH WTR NOT AVBL
ARBOR VITAE    NOT AVBL
EAGLE RIVER    NOT AVBL
LAND O LAKES   NOT AVBL
RHINELANDER    CLOUDY    58  56  93 N3        29.93R
PHILLIPS       NOT AVBL
ANTIGO         NOT AVBL
TOMAHAWK       NOT AVBL
MERRILL        NOT AVBL
$$

WIZ013-073-310300-
NORTHEAST WISCONSIN

CITY           SKY/WX    TMP DP  RH WIND       PRES   REMARKS
IRON MOUNTAIN  CLOUDY    61  57  87 NW9       29.87R
MARINETTE      CLOUDY    63  59  88 NW6       29.86R
$$

WIZ017-030-035>037-045-310300-
CENTRAL WISCONSIN

CITY           SKY/WX    TMP DP  RH WIND       PRES   REMARKS
MEDFORD        NOT AVBL
WAUSAU         CLOUDY    64  59  83 N7        29.89R
MOSINEE        CLOUDY    64  63  94 N6        29.91R
MARSHFIELD     CLOUDY    65  60  84 N7        29.90R
WISC RAPIDS    PTCLDY    66  62  87 N5        29.90R
STEVENS POINT  NOT AVBL
WAUPACA        NOT AVBL
SHAWANO        NOT AVBL
CLINTONVILLE   NOT AVBL
$$

WIZ038-039-048-051-310300-
FOX VALLEY

CITY           SKY/WX    TMP DP  RH WIND       PRES   REMARKS
NWS GREEN BAY  CLOUDY    68  66  93 N7        29.87R
APPLETON       MOCLDY    68  64  88 N12       29.87R
OSHKOSH        MOCLDY    69  66  90 NW5       29.87R
FOND DU LAC    MOCLDY    70  67  90 CALM      29.87R
$$

WIZ022-050-052-310300-
EAST CENTRAL WISCONSIN

CITY           SKY/WX    TMP DP  RH WIND       PRES   REMARKS
STURGEON BAY   CLOUDY    64  61  88 N12       29.87R
MANITOWOC      NOT AVBL
SHEBOYGAN      CLEAR     66  64  93 SW6       29.87R
$$

LMZ563-521-522-541>543-310300-
LAKESHORE

STATION/POSITION TIME  TEMP    WIND        PRES    VSBY  WAVE
                       AIR SEA DIR/SP/G                  HT/PER
                 (UTC) (F)     (DEG/KT/KT) (MB)    (MI)  (FT/S)
SHEBOYGAN LKSHOR 0100   72 50  270/  6/  7 1010.3R
KEWAUNEE LKSHORE 0100   68     310/  3/  5 1009.8R
ALGOMA MARINA    0100          340/ 10/ 14   N/A
NORTHPORT PIER   0100   66     320/ 14/ 18 1009.5R
N MID LAKE BUOY  0100   63 65  310/ 16/ 19 1008.4R         4/ 6
S GREEN BAY BUOY 0100   68     VRB 12/ 16  1011.7R
SISTER BAY LKSHO 0100   65     350/ 17/ 20   N/A
CHAMBERS ISLAND  0100   65     310/ 12/ 15 1010.5R
MENOMINEE LKSHOR 0100   65     320/ 11/ 13 1011.3R
$$



USA.gov is the U.S. government's official web portal to all federal, state and local government web resources and services.